This demonstration page uses our WeatherBlox Daily Observations layout. Learn more.

Left ArrowRight Arrow

39.92423, -83.80882

Hourly Observations for March 19, 2019

Temp ( °F °C ) Dew Point ( °F °C ) Humidity (%) Winds ( mph kmh ) Pressure ( in mb ) Visibility ( mi km ) Precip ( " mm )
12:56 am 00:56 Mostly Cloudy 31 -0.6 26 -3.3 82 82 Calm 30.43 1031 10 16.0934 0 0
1:56 am 01:56 Cloudy 29 -1.7 27 -2.8 92 92 Calm 30.43 1031 10 16.0934 0 0
2:56 am 02:56 Mostly Cloudy 30 -1.1 25 -3.9 82 82 SE 3 6 30.42 1030 10 16.0934 0 0
3:56 am 03:56 Mostly Cloudy 28 -2.2 26 -3.3 92 92 S 3 6 30.42 1030 10 16.0934 0 0
4:56 am 04:56 Clear 28 -2.2 25 -3.9 88 88 Calm 30.4 1030 10 16.0934 0 0
5:56 am 05:56 Clear 26 -3.3 24 -4.4 92 92 NNW 5 7 30.41 1030 10 16.0934 0 0
6:56 am 06:56 Clear 27 -2.8 24 -4.4 89 89 Calm 30.43 1031 10 16.0934 0 0
7:56 am 07:56 Sunny 27 -2.8 24 -4.4 89 89 Calm 30.45 1031 10 16.0934 0 0
8:56 am 08:56 Sunny 29 -1.7 28 -2.2 96 96 Calm 30.46 1032 10 16.0934 0 0
9:56 am 09:56 Sunny 38 3.3 25 -3.9 60 60 SW 6 9 30.47 1032 10 16.0934 0 0
10:56 am 10:56 Sunny 41 5 23 -5 49 49 WSW 3 6 30.48 1032 10 16.0934 0 0
11:56 am 11:56 Sunny 42 5.6 24 -4.4 49 49 S 7 11 30.48 1032 10 16.0934 0 0
12:56 pm 12:56 Sunny 43 6.1 24 -4.4 47 47 VRB 7 11 30.47 1032 10 16.0934 0 0
1:56 pm 13:56 Sunny 46 7.8 26 -3.3 46 46 WSW 8 13 30.45 1031 10 16.0934 0 0
2:56 pm 14:56 Partly Cloudy 45 7.2 23 -5 42 42 SW 9 15 30.42 1030 10 16.0934 0 0
3:56 pm 15:56 Sunny 48 8.9 25 -3.9 41 41 VRB 7 11 30.4 1029 10 16.0934 0 0
4:56 pm 16:56 Sunny 48 8.9 23 -5 37 37 VRB 3 6 30.38 1029 10 16.0934 0 0
5:56 pm 17:56 Sunny 48 8.9 24 -4.4 39 39 WNW 5 7 30.37 1029 10 16.0934 0 0
6:56 pm 18:56 Sunny 47 8.3 26 -3.3 44 44 W 5 7 30.37 1028 10 16.0934 0 0
7:56 pm 19:56 Clear 42 5.6 24 -4.4 49 49 NW 5 7 30.37 1029 10 16.0934 0 0
8:56 pm 20:56 Clear 41 5 23 -5 49 49 N 3 6 30.37 1029 10 16.0934 0 0
9:56 pm 21:56 Clear 38 3.3 23 -5 55 55 Calm 30.36 1028 10 16.0934 0 0
10:56 pm 22:56 Clear 33 0.6 26 -3.3 75 75 Calm 30.36 1028 10 16.0934 0 0
11:56 pm 23:56 Clear 31 -0.6 27 -2.8 85 85 E 3 6 30.35 1028 10 16.0934 0 0

Powered by AerisWeather